Location: Edinburgh
(55.9500°N, 3.1600°W)
Time: 00:34:17
(UTC+00:00)

Envisat - Pass Details

Date: 12 October 2017
Orbit: 764 x 766 km, 98.2° (Epoch: 13 December)

Event Time Altitude Azimuth Distance (km) Brightness Sun altitude
Exits shadow 21:33:21 20° 209° (SSW) 1,716 4.8 -27.2°
Maximum altitude 21:36:19 37° 264° (W) 1,178 4.3 -27.6°
Drops below altitude 10° 21:41:03 10° 332° (NNW) 2,320 6.2 -28.1°
Sets 21:43:32 0° 341° (NNW) 3,251 7.0 -28.4°
